Year,Month,Day,Hour,Minute,Value (Times are PST for temperature in C)
2015,06,13,00,00,12.60
2015,06,13,00,01,12.60
2015,06,13,00,02,12.60
2015,06,13,00,03,12.60
2015,06,13,00,04,12.70
2015,06,13,00,05,12.70
2015,06,13,00,06,12.60
2015,06,13,00,07,12.60
2015,06,13,00,08,12.70
2015,06,13,00,09,12.70
2015,06,13,00,10,12.70
2015,06,13,00,11,12.70
2015,06,13,00,12,12.70
2015,06,13,00,13,12.70
2015,06,13,00,14,12.70
2015,06,13,00,15,12.70
2015,06,13,00,16,12.70
2015,06,13,00,17,12.70
2015,06,13,00,18,12.70
2015,06,13,00,19,12.70
2015,06,13,00,20,12.80
2015,06,13,00,21,12.80
2015,06,13,00,22,12.70
2015,06,13,00,23,12.70
2015,06,13,00,24,12.70
2015,06,13,00,25,12.70
2015,06,13,00,26,12.60
2015,06,13,00,27,12.60
2015,06,13,00,28,12.60
2015,06,13,00,29,12.60
2015,06,13,00,30,12.60
2015,06,13,00,31,12.60
2015,06,13,00,32,12.60
2015,06,13,00,33,12.60
2015,06,13,00,34,12.60
2015,06,13,00,35,12.60
2015,06,13,00,36,12.60
2015,06,13,00,37,12.60
2015,06,13,00,38,12.60
2015,06,13,00,39,12.60
2015,06,13,00,40,12.50
2015,06,13,00,41,12.50
2015,06,13,00,42,12.50
2015,06,13,00,43,12.40
2015,06,13,00,44,12.40
2015,06,13,00,45,12.40
2015,06,13,00,46,12.40
2015,06,13,00,47,12.40
2015,06,13,00,48,12.40
2015,06,13,00,49,12.40
2015,06,13,00,50,12.40
2015,06,13,00,51,12.40
2015,06,13,00,52,12.40
2015,06,13,00,53,12.40
2015,06,13,00,54,12.40
2015,06,13,00,55,12.40
2015,06,13,00,56,12.40
2015,06,13,00,57,12.40
2015,06,13,00,58,12.30
2015,06,13,00,59,12.40
2015,06,13,01,00,12.30
2015,06,13,01,01,12.30
2015,06,13,01,02,12.30
2015,06,13,01,03,12.30
2015,06,13,01,04,12.30
2015,06,13,01,05,12.30
2015,06,13,01,06,12.30
2015,06,13,01,07,12.30
2015,06,13,01,08,12.20
2015,06,13,01,09,12.20
2015,06,13,01,10,12.20
2015,06,13,01,11,12.20
2015,06,13,01,12,12.20
2015,06,13,01,13,12.20
2015,06,13,01,14,12.20
2015,06,13,01,15,12.20
2015,06,13,01,16,12.20
2015,06,13,01,17,12.20
2015,06,13,01,18,12.20
2015,06,13,01,19,12.20
2015,06,13,01,20,12.20
2015,06,13,01,21,12.20
2015,06,13,01,22,12.20
2015,06,13,01,23,12.20
2015,06,13,01,24,12.20
2015,06,13,01,25,12.20
2015,06,13,01,26,12.20
2015,06,13,01,27,12.20
2015,06,13,01,28,12.20
2015,06,13,01,29,12.20
2015,06,13,01,30,12.20
2015,06,13,01,31,12.20
2015,06,13,01,32,12.20
2015,06,13,01,33,12.20
2015,06,13,01,34,12.20
2015,06,13,01,35,12.20
2015,06,13,01,36,12.20
2015,06,13,01,37,12.20
2015,06,13,01,38,12.20
2015,06,13,01,39,12.20
2015,06,13,01,40,12.20
2015,06,13,01,41,12.20
2015,06,13,01,42,12.20
2015,06,13,01,43,12.20
2015,06,13,01,44,12.10
2015,06,13,01,45,12.10
2015,06,13,01,46,12.10
2015,06,13,01,47,12.10
2015,06,13,01,48,12.10
2015,06,13,01,49,12.10
2015,06,13,01,50,12.10
2015,06,13,01,51,12.10
2015,06,13,01,52,12.10
2015,06,13,01,53,12.10
2015,06,13,01,54,12.10
2015,06,13,01,55,12.10
2015,06,13,01,56,12.10
2015,06,13,01,57,12.10
2015,06,13,01,58,12.10
2015,06,13,01,59,12.10
2015,06,13,02,00,12.10
2015,06,13,02,01,12.00
2015,06,13,02,02,12.00
2015,06,13,02,03,12.00
2015,06,13,02,04,12.00
2015,06,13,02,05,12.00
2015,06,13,02,06,12.00
2015,06,13,02,07,12.10
2015,06,13,02,08,12.10
2015,06,13,02,09,12.10
2015,06,13,02,10,12.10
2015,06,13,02,11,12.00
2015,06,13,02,12,12.10
2015,06,13,02,13,12.10
2015,06,13,02,14,12.10
2015,06,13,02,15,12.10
2015,06,13,02,16,12.10
2015,06,13,02,17,12.10
2015,06,13,02,18,12.10
2015,06,13,02,19,12.10
2015,06,13,02,20,12.10
2015,06,13,02,21,12.00
2015,06,13,02,22,12.00
2015,06,13,02,23,12.00
2015,06,13,02,24,11.90
2015,06,13,02,25,11.90
2015,06,13,02,26,12.00
2015,06,13,02,27,11.90
2015,06,13,02,28,11.90
2015,06,13,02,29,11.90
2015,06,13,02,30,11.90
2015,06,13,02,31,11.90
2015,06,13,02,32,11.90
2015,06,13,02,33,11.90
2015,06,13,02,34,12.00
2015,06,13,02,35,12.00
2015,06,13,02,36,12.00
2015,06,13,02,37,12.00
2015,06,13,02,38,12.00
2015,06,13,02,39,12.00
2015,06,13,02,40,12.10
2015,06,13,02,41,12.20
2015,06,13,02,42,12.20
2015,06,13,02,43,12.20
2015,06,13,02,44,12.20
2015,06,13,02,45,12.20
2015,06,13,02,46,12.20
2015,06,13,02,47,12.20
2015,06,13,02,48,12.20
2015,06,13,02,49,12.20
2015,06,13,02,50,12.20
2015,06,13,02,51,12.20
2015,06,13,02,52,12.10
2015,06,13,02,53,12.10
2015,06,13,02,54,12.10
2015,06,13,02,55,12.10
2015,06,13,02,56,12.10
2015,06,13,02,57,12.10
2015,06,13,02,58,12.10
2015,06,13,02,59,12.10
2015,06,13,03,00,12.10
2015,06,13,03,01,12.10
2015,06,13,03,02,12.10
2015,06,13,03,03,12.00
2015,06,13,03,04,12.00
2015,06,13,03,05,12.00
2015,06,13,03,06,12.10
2015,06,13,03,07,12.10
2015,06,13,03,08,12.10
2015,06,13,03,09,12.10
2015,06,13,03,10,12.10
2015,06,13,03,11,12.10
2015,06,13,03,12,12.00
2015,06,13,03,13,12.00
2015,06,13,03,14,12.00
2015,06,13,03,15,12.00
2015,06,13,03,16,12.00
2015,06,13,03,17,12.00
2015,06,13,03,18,12.00
2015,06,13,03,19,12.00
2015,06,13,03,20,12.00
2015,06,13,03,21,12.00
2015,06,13,03,22,12.00
2015,06,13,03,23,12.00
2015,06,13,03,24,12.00
2015,06,13,03,25,12.10
2015,06,13,03,26,12.10
2015,06,13,03,27,12.10
2015,06,13,03,28,12.10
2015,06,13,03,29,12.10
2015,06,13,03,30,12.10
2015,06,13,03,31,12.10
2015,06,13,03,32,12.10
2015,06,13,03,33,12.20
2015,06,13,03,34,12.20
2015,06,13,03,35,12.10
2015,06,13,03,36,12.10
2015,06,13,03,37,12.10
2015,06,13,03,38,12.10
2015,06,13,03,39,12.10
2015,06,13,03,40,12.10
2015,06,13,03,41,12.10
2015,06,13,03,42,12.10
2015,06,13,03,43,12.10
2015,06,13,03,44,12.10
2015,06,13,03,45,12.10
2015,06,13,03,46,12.10
2015,06,13,03,47,12.10
2015,06,13,03,48,12.10
2015,06,13,03,49,12.10
2015,06,13,03,50,12.10
2015,06,13,03,51,12.10
2015,06,13,03,52,12.00
2015,06,13,03,53,12.00
2015,06,13,03,54,12.00
2015,06,13,03,55,12.00
2015,06,13,03,56,12.00
2015,06,13,03,57,12.00
2015,06,13,03,58,12.00
2015,06,13,03,59,12.00
2015,06,13,04,00,12.10
2015,06,13,04,01,12.10
2015,06,13,04,02,12.10
2015,06,13,04,03,12.10
2015,06,13,04,04,12.10
2015,06,13,04,05,12.10
2015,06,13,04,06,12.10
2015,06,13,04,07,12.10
2015,06,13,04,08,12.00
2015,06,13,04,09,12.00
2015,06,13,04,10,12.00
2015,06,13,04,11,11.90
2015,06,13,04,12,11.90
2015,06,13,04,13,11.90
2015,06,13,04,14,11.90
2015,06,13,04,15,11.90
2015,06,13,04,16,11.90
2015,06,13,04,17,11.90
2015,06,13,04,18,11.90
2015,06,13,04,19,12.00
2015,06,13,04,20,11.90
2015,06,13,04,21,12.00
2015,06,13,04,22,11.90
2015,06,13,04,23,11.90
2015,06,13,04,24,11.90
2015,06,13,04,25,11.90
2015,06,13,04,26,11.90
2015,06,13,04,27,11.90
2015,06,13,04,28,11.90
2015,06,13,04,29,11.90
2015,06,13,04,30,11.90
2015,06,13,04,31,11.90
2015,06,13,04,32,11.90
2015,06,13,04,33,11.90
2015,06,13,04,34,11.90
2015,06,13,04,35,11.90
2015,06,13,04,36,11.90
2015,06,13,04,37,11.90
2015,06,13,04,38,11.90
2015,06,13,04,39,11.90
2015,06,13,04,40,11.90
2015,06,13,04,41,11.90
2015,06,13,04,42,11.90
2015,06,13,04,43,12.00
2015,06,13,04,44,12.10
2015,06,13,04,45,12.10
2015,06,13,04,46,12.20
2015,06,13,04,47,12.20
2015,06,13,04,48,12.20
2015,06,13,04,49,12.20
2015,06,13,04,50,12.10
2015,06,13,04,51,12.10
2015,06,13,04,52,12.10
2015,06,13,04,53,12.10
2015,06,13,04,54,12.10
2015,06,13,04,55,12.10
2015,06,13,04,56,12.00
2015,06,13,04,57,12.00
2015,06,13,04,58,12.00
2015,06,13,04,59,12.00
2015,06,13,05,00,12.00
2015,06,13,05,01,12.00
2015,06,13,05,02,12.10
2015,06,13,05,03,12.10
2015,06,13,05,04,12.10
2015,06,13,05,05,12.10
2015,06,13,05,06,12.10
2015,06,13,05,07,12.20
2015,06,13,05,08,12.20
2015,06,13,05,09,12.20
2015,06,13,05,10,12.20
2015,06,13,05,11,12.20
2015,06,13,05,12,12.20
2015,06,13,05,13,12.20
2015,06,13,05,14,12.20
2015,06,13,05,15,12.20
2015,06,13,05,16,12.20
2015,06,13,05,17,12.20
2015,06,13,05,18,12.20
2015,06,13,05,19,12.10
2015,06,13,05,20,12.10
2015,06,13,05,21,12.10
2015,06,13,05,22,12.10
2015,06,13,05,23,12.10
2015,06,13,05,24,12.10
2015,06,13,05,25,12.10
2015,06,13,05,26,12.10
2015,06,13,05,27,12.10
2015,06,13,05,28,12.10
2015,06,13,05,29,12.10
2015,06,13,05,30,12.10
2015,06,13,05,31,12.00
2015,06,13,05,32,12.00
2015,06,13,05,33,12.10
2015,06,13,05,34,12.00
2015,06,13,05,35,12.00
2015,06,13,05,36,12.00
2015,06,13,05,37,12.00
2015,06,13,05,38,12.10
2015,06,13,05,39,12.10
2015,06,13,05,40,12.10
2015,06,13,05,41,12.10
2015,06,13,05,42,12.10
2015,06,13,05,43,12.10
2015,06,13,05,44,12.10
2015,06,13,05,45,12.10
2015,06,13,05,46,12.10
2015,06,13,05,47,12.10
2015,06,13,05,48,12.10
2015,06,13,05,49,12.10
2015,06,13,05,50,12.10
2015,06,13,05,51,12.10
2015,06,13,05,52,12.10
2015,06,13,05,53,12.10
2015,06,13,05,54,12.10
2015,06,13,05,55,12.10
2015,06,13,05,56,12.10
2015,06,13,05,57,12.10
2015,06,13,05,58,12.10
2015,06,13,05,59,12.10
2015,06,13,06,00,12.10
2015,06,13,06,01,12.10
2015,06,13,06,02,12.10
2015,06,13,06,03,12.10
2015,06,13,06,04,12.10
2015,06,13,06,05,12.10
2015,06,13,06,06,12.10
2015,06,13,06,07,12.10
2015,06,13,06,08,12.10
2015,06,13,06,09,12.10
2015,06,13,06,10,12.10
2015,06,13,06,11,12.20
2015,06,13,06,12,12.20
2015,06,13,06,13,12.20
2015,06,13,06,14,12.10
2015,06,13,06,15,12.10
2015,06,13,06,16,12.10
2015,06,13,06,17,12.10
2015,06,13,06,18,12.10
2015,06,13,06,19,12.10
2015,06,13,06,20,12.10
2015,06,13,06,21,12.10
2015,06,13,06,22,12.10
2015,06,13,06,23,12.10
2015,06,13,06,24,12.10
2015,06,13,06,25,12.10
2015,06,13,06,26,12.10
2015,06,13,06,27,12.10
2015,06,13,06,28,12.10
2015,06,13,06,29,12.10
2015,06,13,06,30,12.10
2015,06,13,06,31,12.10
2015,06,13,06,32,12.10
2015,06,13,06,33,12.10
2015,06,13,06,34,12.10
2015,06,13,06,35,12.10
2015,06,13,06,36,12.10
2015,06,13,06,37,12.10
2015,06,13,06,38,12.10
2015,06,13,06,39,12.10
2015,06,13,06,40,12.10
2015,06,13,06,41,12.10
2015,06,13,06,42,12.10
2015,06,13,06,43,12.10
2015,06,13,06,44,12.10
2015,06,13,06,45,12.10
2015,06,13,06,46,12.10
2015,06,13,06,47,12.10
2015,06,13,06,48,12.10
2015,06,13,06,49,12.10
2015,06,13,06,50,12.10
2015,06,13,06,51,12.10
2015,06,13,06,52,12.10
2015,06,13,06,53,12.10
2015,06,13,06,54,12.10
2015,06,13,06,55,12.10
2015,06,13,06,56,12.10
2015,06,13,06,57,12.10
2015,06,13,06,58,12.20
2015,06,13,06,59,12.20
2015,06,13,07,00,12.20
2015,06,13,07,01,12.20
2015,06,13,07,02,12.20
2015,06,13,07,03,12.20
2015,06,13,07,04,12.20
2015,06,13,07,05,12.20
2015,06,13,07,06,12.20
2015,06,13,07,07,12.20
2015,06,13,07,08,12.20
2015,06,13,07,09,12.20
2015,06,13,07,10,12.20
2015,06,13,07,11,12.20
2015,06,13,07,12,12.20
2015,06,13,07,13,12.20
2015,06,13,07,14,12.20
2015,06,13,07,15,12.20
2015,06,13,07,16,12.20
2015,06,13,07,17,12.20
2015,06,13,07,18,12.20
2015,06,13,07,19,12.20
2015,06,13,07,20,12.20
2015,06,13,07,21,12.20
2015,06,13,07,22,12.20
2015,06,13,07,23,12.20
2015,06,13,07,24,12.20
2015,06,13,07,25,12.20
2015,06,13,07,26,12.20
2015,06,13,07,27,12.20
2015,06,13,07,28,12.20
2015,06,13,07,29,12.20
2015,06,13,07,30,12.20
2015,06,13,07,31,12.20
2015,06,13,07,32,12.20
2015,06,13,07,33,12.20
2015,06,13,07,34,12.20
2015,06,13,07,35,12.20
2015,06,13,07,36,12.20
2015,06,13,07,37,12.20
2015,06,13,07,38,12.30
2015,06,13,07,39,12.30
2015,06,13,07,40,12.30
2015,06,13,07,41,12.30
2015,06,13,07,42,12.30
2015,06,13,07,43,12.30
2015,06,13,07,44,12.30
2015,06,13,07,45,12.30
2015,06,13,07,46,12.30
2015,06,13,07,47,12.30
2015,06,13,07,48,12.30
2015,06,13,07,49,12.30
2015,06,13,07,50,12.30
2015,06,13,07,51,12.30
2015,06,13,07,52,12.30
2015,06,13,07,53,12.30
2015,06,13,07,54,12.30
2015,06,13,07,55,12.30
2015,06,13,07,56,12.30
2015,06,13,07,57,12.30
2015,06,13,07,58,12.30
2015,06,13,07,59,12.30
2015,06,13,08,00,12.30
2015,06,13,08,01,12.30
2015,06,13,08,02,12.30
2015,06,13,08,03,12.30
2015,06,13,08,04,12.40
2015,06,13,08,05,12.40
2015,06,13,08,06,12.40
2015,06,13,08,07,12.40
2015,06,13,08,08,12.50
2015,06,13,08,09,12.50
2015,06,13,08,10,12.50
2015,06,13,08,11,12.50
2015,06,13,08,12,12.50
2015,06,13,08,13,12.60
2015,06,13,08,14,12.60
2015,06,13,08,15,12.60
2015,06,13,08,16,12.60
2015,06,13,08,17,12.60
2015,06,13,08,18,12.60
2015,06,13,08,19,12.60
2015,06,13,08,20,12.60
2015,06,13,08,21,12.60
2015,06,13,08,22,12.70
2015,06,13,08,23,12.70
2015,06,13,08,24,12.70
2015,06,13,08,25,12.80
2015,06,13,08,26,12.80
2015,06,13,08,27,12.80
2015,06,13,08,28,12.80
2015,06,13,08,29,12.80
2015,06,13,08,30,12.80
2015,06,13,08,31,12.80
2015,06,13,08,32,12.80
2015,06,13,08,33,12.80
2015,06,13,08,34,12.90
2015,06,13,08,35,12.90
2015,06,13,08,36,12.90
2015,06,13,08,37,12.90
2015,06,13,08,38,13.00
2015,06,13,08,39,13.00
2015,06,13,08,40,13.10
2015,06,13,08,41,13.10
2015,06,13,08,42,13.10
2015,06,13,08,43,13.10
2015,06,13,08,44,13.10
2015,06,13,08,45,13.10
2015,06,13,08,46,13.20
2015,06,13,08,47,13.20
2015,06,13,08,48,13.20
2015,06,13,08,49,13.20
2015,06,13,08,50,13.20
2015,06,13,08,51,13.20
2015,06,13,08,52,13.30
2015,06,13,08,53,13.30
2015,06,13,08,54,13.30
2015,06,13,08,55,13.40
2015,06,13,08,56,13.40
2015,06,13,08,57,13.40
2015,06,13,08,58,13.40
2015,06,13,08,59,13.50
2015,06,13,09,00,13.50
2015,06,13,09,01,13.60
2015,06,13,09,02,13.60
2015,06,13,09,03,13.70
2015,06,13,09,04,13.70
2015,06,13,09,05,13.70
2015,06,13,09,06,13.80
2015,06,13,09,07,13.80
2015,06,13,09,08,13.80
2015,06,13,09,09,13.80
2015,06,13,09,10,13.80
2015,06,13,09,11,13.90
2015,06,13,09,12,13.90
2015,06,13,09,13,13.90
2015,06,13,09,14,13.90
2015,06,13,09,15,14.00
2015,06,13,09,16,14.00
2015,06,13,09,17,14.10
2015,06,13,09,18,14.10
2015,06,13,09,19,14.20
2015,06,13,09,20,14.20
2015,06,13,09,21,14.30
2015,06,13,09,22,14.30
2015,06,13,09,23,14.40
2015,06,13,09,24,14.40
2015,06,13,09,25,14.40
2015,06,13,09,26,14.40
2015,06,13,09,27,14.40
2015,06,13,09,28,14.50
2015,06,13,09,29,14.60
2015,06,13,09,30,14.60
2015,06,13,09,31,14.60
2015,06,13,09,32,14.70
2015,06,13,09,33,14.70
2015,06,13,09,34,14.70
2015,06,13,09,35,14.70
2015,06,13,09,36,14.60
2015,06,13,09,37,14.70
2015,06,13,09,38,14.70
2015,06,13,09,39,14.80
2015,06,13,09,40,14.90
2015,06,13,09,41,14.90
2015,06,13,09,42,15.00
2015,06,13,09,43,15.10
2015,06,13,09,44,15.10
2015,06,13,09,45,15.20
2015,06,13,09,46,15.20
2015,06,13,09,47,15.30
2015,06,13,09,48,15.30
2015,06,13,09,49,15.30
2015,06,13,09,50,15.30
2015,06,13,09,51,15.30
2015,06,13,09,52,15.30
2015,06,13,09,53,15.40
2015,06,13,09,54,15.40
2015,06,13,09,55,15.50
2015,06,13,09,56,15.50
2015,06,13,09,57,15.50
2015,06,13,09,58,15.60
2015,06,13,09,59,15.60
2015,06,13,10,00,15.70
2015,06,13,10,01,15.70
2015,06,13,10,02,15.80
2015,06,13,10,03,15.80
2015,06,13,10,04,15.90
2015,06,13,10,05,15.90
2015,06,13,10,06,16.00
2015,06,13,10,07,16.10
2015,06,13,10,08,16.10
2015,06,13,10,09,16.00
2015,06,13,10,10,16.00
2015,06,13,10,11,16.00
2015,06,13,10,12,16.10
2015,06,13,10,13,16.20
2015,06,13,10,14,16.20
2015,06,13,10,15,16.30
2015,06,13,10,16,16.30
2015,06,13,10,17,16.40
2015,06,13,10,18,16.40
2015,06,13,10,19,16.40
2015,06,13,10,20,16.50
2015,06,13,10,21,16.60
2015,06,13,10,22,16.60
2015,06,13,10,23,16.70
2015,06,13,10,24,16.80
2015,06,13,10,25,16.80
2015,06,13,10,26,16.80
2015,06,13,10,27,16.90
2015,06,13,10,28,16.90
2015,06,13,10,29,17.00
2015,06,13,10,30,16.90
2015,06,13,10,31,16.90
2015,06,13,10,32,16.90
2015,06,13,10,33,16.80
2015,06,13,10,34,16.80
2015,06,13,10,35,16.80
2015,06,13,10,36,16.90
2015,06,13,10,37,16.90
2015,06,13,10,38,16.80
2015,06,13,10,39,16.80
2015,06,13,10,40,16.90
2015,06,13,10,41,17.00
2015,06,13,10,42,17.10
2015,06,13,10,43,17.10
2015,06,13,10,44,17.10
2015,06,13,10,45,17.10
2015,06,13,10,46,17.20
2015,06,13,10,47,17.30
2015,06,13,10,48,17.30
2015,06,13,10,49,17.30
2015,06,13,10,50,17.30
2015,06,13,10,51,17.40
2015,06,13,10,52,17.40
2015,06,13,10,53,17.50
2015,06,13,10,54,17.60
2015,06,13,10,55,17.60
2015,06,13,10,56,17.60
2015,06,13,10,57,17.50
2015,06,13,10,58,17.50
2015,06,13,10,59,17.50
2015,06,13,11,00,17.60
2015,06,13,11,01,17.70
2015,06,13,11,02,17.70
2015,06,13,11,03,17.80
2015,06,13,11,04,17.80
2015,06,13,11,05,17.80
2015,06,13,11,06,17.80
2015,06,13,11,07,17.70
2015,06,13,11,08,17.70
2015,06,13,11,09,17.70
2015,06,13,11,10,17.70
2015,06,13,11,11,17.70
2015,06,13,11,12,17.80
2015,06,13,11,13,17.90
2015,06,13,11,14,17.90
2015,06,13,11,15,18.00
2015,06,13,11,16,18.00
2015,06,13,11,17,18.00
2015,06,13,11,18,18.10
2015,06,13,11,19,18.10
2015,06,13,11,20,18.20
2015,06,13,11,21,18.30
2015,06,13,11,22,18.30
2015,06,13,11,23,18.30
2015,06,13,11,24,18.30
2015,06,13,11,25,18.40
2015,06,13,11,26,18.40
2015,06,13,11,27,18.30
2015,06,13,11,28,18.30
2015,06,13,11,29,18.30
2015,06,13,11,30,18.30
2015,06,13,11,31,18.20
2015,06,13,11,32,18.30
2015,06,13,11,33,18.30
2015,06,13,11,34,18.30
2015,06,13,11,35,18.40
2015,06,13,11,36,18.50
2015,06,13,11,37,18.50
2015,06,13,11,38,18.60
2015,06,13,11,39,18.60
2015,06,13,11,40,18.60
2015,06,13,11,41,18.60
2015,06,13,11,42,18.50
2015,06,13,11,43,18.50
2015,06,13,11,44,18.60
2015,06,13,11,45,18.60
2015,06,13,11,46,18.60
2015,06,13,11,47,18.70
2015,06,13,11,48,18.80
2015,06,13,11,49,18.80
2015,06,13,11,50,18.80
2015,06,13,11,51,18.90
2015,06,13,11,52,19.00
2015,06,13,11,53,19.10
2015,06,13,11,54,19.10
2015,06,13,11,55,19.20
2015,06,13,11,56,19.20
2015,06,13,11,57,19.30
2015,06,13,11,58,19.30
2015,06,13,11,59,19.30
2015,06,13,12,00,19.30
2015,06,13,12,01,19.40
2015,06,13,12,02,19.40
2015,06,13,12,03,19.30
2015,06,13,12,04,19.30
2015,06,13,12,05,19.20
2015,06,13,12,06,19.20
2015,06,13,12,07,19.20
2015,06,13,12,08,19.30
2015,06,13,12,09,19.40
2015,06,13,12,10,19.50
2015,06,13,12,11,19.60
2015,06,13,12,12,19.60
2015,06,13,12,13,19.60
2015,06,13,12,14,19.70
2015,06,13,12,15,19.70
2015,06,13,12,16,19.80
2015,06,13,12,17,19.90
2015,06,13,12,18,19.90
2015,06,13,12,19,19.90
2015,06,13,12,20,20.00
2015,06,13,12,21,20.00
2015,06,13,12,22,20.00
2015,06,13,12,23,20.10
2015,06,13,12,24,20.10
2015,06,13,12,25,20.10
2015,06,13,12,26,20.10
2015,06,13,12,27,20.10
2015,06,13,12,28,20.10
2015,06,13,12,29,20.10
2015,06,13,12,30,20.10
2015,06,13,12,31,20.10
2015,06,13,12,32,20.10
2015,06,13,12,33,20.20
2015,06,13,12,34,20.10
2015,06,13,12,35,20.10
2015,06,13,12,36,20.10
2015,06,13,12,37,20.10
2015,06,13,12,38,20.10
2015,06,13,12,39,20.20
2015,06,13,12,40,20.20
2015,06,13,12,41,20.30
2015,06,13,12,42,20.30
2015,06,13,12,43,20.30
2015,06,13,12,44,20.30
2015,06,13,12,45,20.40
2015,06,13,12,46,20.40
2015,06,13,12,47,20.50
2015,06,13,12,48,20.60
2015,06,13,12,49,20.70
2015,06,13,12,50,20.80
2015,06,13,12,51,20.70
2015,06,13,12,52,20.60
2015,06,13,12,53,20.50
2015,06,13,12,54,20.40
2015,06,13,12,55,20.40
2015,06,13,12,56,20.40
2015,06,13,12,57,20.40
2015,06,13,12,58,20.50
2015,06,13,12,59,20.50
2015,06,13,13,00,20.40
2015,06,13,13,01,20.40
2015,06,13,13,02,20.30
2015,06,13,13,03,20.40
2015,06,13,13,04,20.40
2015,06,13,13,05,20.40
2015,06,13,13,06,20.40
2015,06,13,13,07,20.50
2015,06,13,13,08,20.60
2015,06,13,13,09,20.70
2015,06,13,13,10,20.70
2015,06,13,13,11,20.70
2015,06,13,13,12,20.70
2015,06,13,13,13,20.80
2015,06,13,13,14,20.80
2015,06,13,13,15,20.90
2015,06,13,13,16,21.00
2015,06,13,13,17,21.00
2015,06,13,13,18,21.00
2015,06,13,13,19,21.00
2015,06,13,13,20,21.00
2015,06,13,13,21,21.10
2015,06,13,13,22,21.10
2015,06,13,13,23,21.10
2015,06,13,13,24,21.20
2015,06,13,13,25,21.20
2015,06,13,13,26,21.30
2015,06,13,13,27,21.40
2015,06,13,13,28,21.50
2015,06,13,13,29,21.60
2015,06,13,13,30,21.70
2015,06,13,13,31,21.70
2015,06,13,13,32,21.60
2015,06,13,13,33,21.60
2015,06,13,13,34,21.60
2015,06,13,13,35,21.70
2015,06,13,13,36,21.70
2015,06,13,13,37,21.70
2015,06,13,13,38,21.70
2015,06,13,13,39,21.60
2015,06,13,13,40,21.60
2015,06,13,13,41,21.50
2015,06,13,13,42,21.50
2015,06,13,13,43,21.40
2015,06,13,13,44,21.40
2015,06,13,13,45,21.40
2015,06,13,13,46,21.40
2015,06,13,13,47,21.30
2015,06,13,13,48,21.20
2015,06,13,13,49,21.20
2015,06,13,13,50,21.20
2015,06,13,13,51,21.20
2015,06,13,13,52,21.20
2015,06,13,13,53,21.30
2015,06,13,13,54,21.40
2015,06,13,13,55,21.50
2015,06,13,13,56,21.60
2015,06,13,13,57,21.60
2015,06,13,13,58,21.50
2015,06,13,13,59,21.40
2015,06,13,14,00,21.30
2015,06,13,14,01,21.30
2015,06,13,14,02,21.30
2015,06,13,14,03,21.20
2015,06,13,14,04,21.20
2015,06,13,14,05,21.20
2015,06,13,14,06,21.20
2015,06,13,14,07,21.30
2015,06,13,14,08,21.20
2015,06,13,14,09,21.30
2015,06,13,14,10,21.30
2015,06,13,14,11,21.30
2015,06,13,14,12,21.40
2015,06,13,14,13,21.40
2015,06,13,14,14,21.30
2015,06,13,14,15,21.20
2015,06,13,14,16,21.00
2015,06,13,14,17,21.00
2015,06,13,14,18,20.90
2015,06,13,14,19,20.90
2015,06,13,14,20,21.00
2015,06,13,14,21,20.90
2015,06,13,14,22,20.80
2015,06,13,14,23,20.70
2015,06,13,14,24,20.70
2015,06,13,14,25,20.70
2015,06,13,14,26,20.80
2015,06,13,14,27,20.90
2015,06,13,14,28,21.00
2015,06,13,14,29,21.10
2015,06,13,14,30,21.20
2015,06,13,14,31,21.30
2015,06,13,14,32,21.40
2015,06,13,14,33,21.40
2015,06,13,14,34,21.40
2015,06,13,14,35,21.40
2015,06,13,14,36,21.50
2015,06,13,14,37,21.50
2015,06,13,14,38,21.60
2015,06,13,14,39,21.50
2015,06,13,14,40,21.50
2015,06,13,14,41,21.50
2015,06,13,14,42,21.60
2015,06,13,14,43,21.60
2015,06,13,14,44,21.60
2015,06,13,14,45,21.60
2015,06,13,14,46,21.60
2015,06,13,14,47,21.70
2015,06,13,14,48,21.60
2015,06,13,14,49,21.50
2015,06,13,14,50,21.50
2015,06,13,14,51,21.40
2015,06,13,14,52,21.40
2015,06,13,14,53,21.40
2015,06,13,14,54,21.30
2015,06,13,14,55,21.30
2015,06,13,14,56,21.30
2015,06,13,14,57,21.30
2015,06,13,14,58,21.20
2015,06,13,14,59,21.10
2015,06,13,15,00,21.10
2015,06,13,15,01,21.10
2015,06,13,15,02,21.10
2015,06,13,15,03,21.10
2015,06,13,15,04,21.10
2015,06,13,15,05,21.10
2015,06,13,15,06,21.00
2015,06,13,15,07,20.90
2015,06,13,15,08,20.90
2015,06,13,15,09,20.90
2015,06,13,15,10,20.90
2015,06,13,15,11,20.90
2015,06,13,15,12,20.90
2015,06,13,15,13,20.90
2015,06,13,15,14,20.90
2015,06,13,15,15,20.90
2015,06,13,15,16,20.90
2015,06,13,15,17,21.00
2015,06,13,15,18,20.90
2015,06,13,15,19,20.90
2015,06,13,15,20,20.90
2015,06,13,15,21,20.90
2015,06,13,15,22,20.90
2015,06,13,15,23,20.90
2015,06,13,15,24,20.80
2015,06,13,15,25,20.80
2015,06,13,15,26,20.90
2015,06,13,15,27,20.80
2015,06,13,15,28,20.80
2015,06,13,15,29,20.80
2015,06,13,15,30,20.80
2015,06,13,15,31,20.70
2015,06,13,15,32,20.70
2015,06,13,15,33,20.70
2015,06,13,15,34,20.70
2015,06,13,15,35,20.70
2015,06,13,15,36,20.70
2015,06,13,15,37,20.70
2015,06,13,15,38,20.80
2015,06,13,15,39,20.80
2015,06,13,15,40,20.80
2015,06,13,15,41,20.70
2015,06,13,15,42,20.60
2015,06,13,15,43,20.60
2015,06,13,15,44,20.60
2015,06,13,15,45,20.60
2015,06,13,15,46,20.60
2015,06,13,15,47,20.60
2015,06,13,15,48,20.70
2015,06,13,15,49,20.70
2015,06,13,15,50,20.70
2015,06,13,15,51,20.70
2015,06,13,15,52,20.60
2015,06,13,15,53,20.50
2015,06,13,15,54,20.50
2015,06,13,15,55,20.50
2015,06,13,15,56,20.50
2015,06,13,15,57,20.50
2015,06,13,15,58,20.50
2015,06,13,15,59,20.50
2015,06,13,16,00,20.40
2015,06,13,16,01,20.40
2015,06,13,16,02,20.40
2015,06,13,16,03,20.40
2015,06,13,16,04,20.40
2015,06,13,16,05,20.40
2015,06,13,16,06,20.40
2015,06,13,16,07,20.30
2015,06,13,16,08,20.30
2015,06,13,16,09,20.30
2015,06,13,16,10,20.30
2015,06,13,16,11,20.30
2015,06,13,16,12,20.30
2015,06,13,16,13,20.30
2015,06,13,16,14,20.30
2015,06,13,16,15,20.30
2015,06,13,16,16,20.30
2015,06,13,16,17,20.30
2015,06,13,16,18,20.30
2015,06,13,16,19,20.30
2015,06,13,16,20,20.20
2015,06,13,16,21,20.20
2015,06,13,16,22,20.20
2015,06,13,16,23,20.20
2015,06,13,16,24,20.20
2015,06,13,16,25,20.10
2015,06,13,16,26,20.20
2015,06,13,16,27,20.10
2015,06,13,16,28,20.10
2015,06,13,16,29,20.10
2015,06,13,16,30,20.10
2015,06,13,16,31,20.10
2015,06,13,16,32,20.10
2015,06,13,16,33,20.10
2015,06,13,16,34,20.10
2015,06,13,16,35,20.10
2015,06,13,16,36,20.10
2015,06,13,16,37,20.10
2015,06,13,16,38,20.10
2015,06,13,16,39,20.00
2015,06,13,16,40,19.90
2015,06,13,16,41,20.00
2015,06,13,16,42,20.00
2015,06,13,16,43,20.00
2015,06,13,16,44,20.00
2015,06,13,16,45,20.10
2015,06,13,16,46,20.10
2015,06,13,16,47,20.00
2015,06,13,16,48,20.00
2015,06,13,16,49,20.00
2015,06,13,16,50,20.00
2015,06,13,16,51,20.00
2015,06,13,16,52,20.00
2015,06,13,16,53,20.10
2015,06,13,16,54,20.20
2015,06,13,16,55,20.30
2015,06,13,16,56,20.30
2015,06,13,16,57,20.20
2015,06,13,16,58,20.10
2015,06,13,16,59,20.10
2015,06,13,17,00,20.10
2015,06,13,17,01,20.10
2015,06,13,17,02,20.10
2015,06,13,17,03,20.10
2015,06,13,17,04,20.10
2015,06,13,17,05,20.00
2015,06,13,17,06,20.00
2015,06,13,17,07,20.00
2015,06,13,17,08,20.00
2015,06,13,17,09,20.00
2015,06,13,17,10,19.90
2015,06,13,17,11,19.90
2015,06,13,17,12,19.90
2015,06,13,17,13,19.90
2015,06,13,17,14,19.90
2015,06,13,17,15,19.80
2015,06,13,17,16,19.80
2015,06,13,17,17,19.80
2015,06,13,17,18,19.80
2015,06,13,17,19,19.90